TimeCST,TemperatureF,Dew PointF,Humidity,Sea Level PressureIn,VisibilityMPH,Wind Direction,Wind SpeedMPH,Gust SpeedMPH,PrecipitationIn,Events,Conditions,WindDirDegrees,DateUTC
12:54 AM,21.0,12.0,68,30.55,10.0,South,9.2,-,N/A,,Clear,170,2013-11-13 06:54:00
1:54 AM,25.0,12.9,60,30.53,10.0,South,10.4,-,N/A,,Clear,180,2013-11-13 07:54:00
2:54 AM,25.0,12.9,60,30.50,10.0,South,11.5,-,N/A,,Clear,180,2013-11-13 08:54:00
3:54 AM,24.1,12.9,62,30.48,10.0,SSE,9.2,-,N/A,,Clear,160,2013-11-13 09:54:00
4:54 AM,26.1,14.0,60,30.44,10.0,South,11.5,-,N/A,,Clear,170,2013-11-13 10:54:00
5:54 AM,24.1,14.0,65,30.42,10.0,South,11.5,-,N/A,,Clear,170,2013-11-13 11:54:00
6:54 AM,27.0,15.1,61,30.38,10.0,South,12.7,-,N/A,,Clear,180,2013-11-13 12:54:00
7:54 AM,30.0,16.0,56,30.36,10.0,South,15.0,-,N/A,,Clear,180,2013-11-13 13:54:00
8:54 AM,34.0,17.1,50,30.34,10.0,South,17.3,-,N/A,,Clear,190,2013-11-13 14:54:00
9:54 AM,39.0,19.0,45,30.32,10.0,South,17.3,-,N/A,,Clear,190,2013-11-13 15:54:00
10:54 AM,43.0,21.0,42,30.29,10.0,South,16.1,-,N/A,,Clear,190,2013-11-13 16:54:00
11:54 AM,46.9,24.1,41,30.24,10.0,South,23.0,-,N/A,,Clear,180,2013-11-13 17:54:00
12:54 PM,51.1,25.0,36,30.19,10.0,SSW,20.7,29.9,N/A,,Clear,200,2013-11-13 18:54:00
1:54 PM,54.0,27.0,35,30.14,10.0,South,23.0,29.9,N/A,,Clear,180,2013-11-13 19:54:00
2:54 PM,55.0,27.0,34,30.10,10.0,South,24.2,-,N/A,,Clear,180,2013-11-13 20:54:00
3:54 PM,54.0,28.0,37,30.09,10.0,South,17.3,-,N/A,,Clear,180,2013-11-13 21:54:00
4:54 PM,50.0,28.0,43,30.06,10.0,South,18.4,-,N/A,,Clear,180,2013-11-13 22:54:00
5:54 PM,45.0,28.0,52,30.06,10.0,South,13.8,-,N/A,,Clear,180,2013-11-13 23:54:00
6:54 PM,42.1,27.0,55,30.07,10.0,South,12.7,-,N/A,,Clear,180,2013-11-14 00:54:00
7:54 PM,39.9,26.1,58,30.06,10.0,South,11.5,-,N/A,,Clear,170,2013-11-14 01:54:00
8:54 PM,37.9,26.1,62,30.04,10.0,South,11.5,-,N/A,,Clear,170,2013-11-14 02:54:00
9:54 PM,36.0,26.1,67,30.02,10.0,SSE,9.2,-,N/A,,Clear,160,2013-11-14 03:54:00
10:54 PM,33.1,25.0,72,30.00,10.0,SSE,10.4,-,N/A,,Clear,160,2013-11-14 04:54:00
11:54 PM,36.0,27.0,70,29.98,10.0,SSE,10.4,-,N/A,,Clear,160,2013-11-14 05:54:00